カタログに戻る

COSMOS 839 DEB *

運用中UNKNOWN
NORAD 18471·DEBRIS·🇷🇺 Russia

打ち上げ Jul 8, 1976 から Plesetsk Cosmodrome

Loading…

次のパス (今後24時間)

TLE

最新Source: Space-Track

元期: Sep 13, 2026, 10:15 UTC

1 18471U 76067BN  26256.42713519  .00000209  00000-0  53401-3 0  9997
2 18471  65.7501 252.6480 0973913 231.2007 292.1515 12.21342356737956

AllMySatでCOSMOS 839 DEB *をリアルタイム追跡

Download on the App Store